"Sample Date","Sample Time","Sample Value","Units","Flow Rate","Sample Interval","Number Channels","Micron Size 0","Counts/Channel 0","Micron Size 1","Counts/Channel 1","Micron Size 2","Counts/Channel 2","Micron Size 3","Counts/Channel 3","Micron Size 4","Counts/Channel 4","Micron Size 5","Counts/Channel 5","Micron Size 6","Counts/Channel 6","Micron Size 7","Counts/Channel 7","Micron Size 8","Counts/Channel 8","Micron Size 9","Counts/Channel 9","Micron Size 10","Counts/Channel 10","Micron Size 11","Counts/Channel 11","Micron Size 12","Counts/Channel 12","Micron Size 13","Counts/Channel 13","Micron Size 14","Counts/Channel 14","Micron Size 15","Counts/Channel 15","Micron Size 16","Counts/Channel 16","Micron Size 17","Counts/Channel 17","Micron Size 18","Counts/Channel 18","Micron Size 19","Counts/Channel 19","Micron Size 20","Counts/Channel 20","Micron Size 21","Counts/Channel 21","Micron Size 22","Counts/Channel 22","Micron Size 23","Counts/Channel 23","Micron Size 24","Counts/Channel 24","Micron Size 25","Counts/Channel 25","Micron Size 26","Counts/Channel 26","Micron Size 27","Counts/Channel 27","Micron Size 28","Counts/Channel 28","Micron Size 29","Counts/Channel 29","Micron Size 30","Counts/Channel 30","Micron Size 31","Counts/Channel 31"
"03/11/08","22:00:00",26528.000,"cc",28305.840,6.00,6,0.100,19687.000,0.200,2253.000,0.300,1770.000,0.500,2067.000,1.000,751.000,5.000,0
"03/11/08","22:00:06",26862.000,"cc",28247.387,6.00,6,0.100,19885.000,0.200,2256.000,0.300,1862.000,0.500,2141.000,1.000,718.000,5.000,0
"03/11/08","22:00:12",27217.000,"cc",28356.061,6.00,6,0.100,20045.000,0.200,2332.000,0.300,1896.000,0.500,2186.000,1.000,758.000,5.000,0
"03/11/08","22:00:18",27265.000,"cc",28323.916,6.00,6,0.100,20103.000,0.200,2360.000,0.300,1883.000,0.500,2167.000,1.000,752.000,5.000,0
"03/11/08","22:00:24",27359.000,"cc",28305.731,6.00,6,0.100,20042.000,0.200,2392.000,0.300,1961.000,0.500,2225.000,1.000,739.000,5.000,0
"03/11/08","22:00:30",26961.000,"cc",28321.815,6.00,6,0.100,19871.000,0.200,2330.000,0.300,1932.000,0.500,2102.000,1.000,726.000,5.000,0
"03/11/08","22:00:36",27516.000,"cc",28277.670,6.00,6,0.100,20145.000,0.200,2500.000,0.300,1931.000,0.500,2187.000,1.000,753.000,5.000,0
"03/11/08","22:00:42",29324.000,"cc",28389.844,6.00,6,0.100,21555.000,0.200,2706.000,0.300,2050.000,0.500,2226.000,1.000,787.000,5.000,0
"03/11/08","22:00:48",36110.000,"cc",28323.318,6.00,6,0.100,27158.000,0.200,3316.000,0.300,2323.000,0.500,2502.000,1.000,811.000,5.000,0
"03/11/08","22:00:54",34839.000,"cc",28330.563,6.00,6,0.100,25960.000,0.200,3336.000,0.300,2263.000,0.500,2479.000,1.000,801.000,5.000,0
"03/11/08","22:01:00",40833.000,"cc",28241.539,6.00,6,0.100,31057.000,0.200,3938.000,0.300,2448.000,0.500,2511.000,1.000,879.000,5.000,0
"03/11/08","22:01:06",39723.000,"cc",28315.826,6.00,6,0.100,30115.000,0.200,3864.000,0.300,2292.000,0.500,2581.000,1.000,871.000,5.000,0
"03/11/08","22:01:12",53222.000,"cc",28482.164,6.00,6,0.100,42476.000,0.200,4975.000,0.300,2377.000,0.500,2511.000,1.000,883.000,5.000,0
"03/11/08","22:01:18",94794.000,"cc",28260.811,6.00,6,0.100,79683.000,0.200,9236.000,0.300,2535.000,0.500,2511.000,1.000,829.000,5.000,0
"03/11/08","22:01:24",143655.000,"cc",28250.986,6.00,6,0.100,123553.000,0.200,13999.000,0.300,2724.000,0.500,2525.000,1.000,854.000,5.000,0
"03/11/08","22:01:30",119857.000,"cc",28289.369,6.00,6,0.100,102479.000,0.200,11628.000,0.300,2472.000,0.500,2467.000,1.000,811.000,5.000,0
"03/11/08","22:01:36",237210.000,"cc",28309.609,6.00,6,0.100,203900.000,0.200,26538.000,0.300,3395.000,0.500,2520.000,1.000,857.000,5.000,0
"03/11/08","22:01:42",321725.000,"cc",28349.979,6.00,6,0.100,276264.000,0.200,38569.000,0.300,3685.000,0.500,2437.000,1.000,770.000,5.000,0
"03/11/08","22:01:48",190678.000,"cc",28337.803,6.00,6,0.100,114902.000,0.200,67456.000,0.300,5194.000,0.500,2294.000,1.000,832.000,5.000,0
"03/11/08","22:01:54",270656.000,"cc",28265.982,6.00,6,0.100,234634.000,0.200,29589.000,0.300,3219.000,0.500,2458.000,1.000,756.000,5.000,0
"03/11/08","22:02:00",175580.000,"cc",28310.535,6.00,6,0.100,152413.000,0.200,17438.000,0.300,2603.000,0.500,2369.000,1.000,757.000,5.000,0
"03/11/08","22:02:06",218189.000,"cc",28387.172,6.00,6,0.100,189313.000,0.200,22624.000,0.300,3095.000,0.500,2412.000,1.000,745.000,5.000,0
"03/11/08","22:02:12",317475.000,"cc",28298.119,6.00,6,0.100,273460.000,0.200,36763.000,0.300,3824.000,0.500,2619.000,1.000,809.000,5.000,0
"03/11/08","22:02:18",390453.000,"cc",28341.781,6.00,6,0.100,332012.000,0.200,50799.000,0.300,4465.000,0.500,2402.000,1.000,775.000,5.000,0
"03/11/08","22:02:24",330451.000,"cc",28268.945,6.00,6,0.100,282711.000,0.200,40672.000,0.300,3808.000,0.500,2500.000,1.000,760.000,5.000,0
"03/11/08","22:02:30",345729.000,"cc",28326.035,6.00,6,0.100,279856.000,0.200,57844.000,0.300,4759.000,0.500,2449.000,1.000,821.000,5.000,0
"03/11/08","22:02:36",290376.000,"cc",28300.096,6.00,6,0.100,250150.000,0.200,33666.000,0.300,3375.000,0.500,2401.000,1.000,784.000,5.000,0
"03/11/08","22:02:42",180147.000,"cc",28279.326,6.00,6,0.100,155770.000,0.200,18566.000,0.300,2674.000,0.500,2372.000,1.000,765.000,5.000,0
"03/11/08","22:02:48",200235.000,"cc",28287.936,6.00,6,0.100,173263.000,0.200,21137.000,0.300,2703.000,0.500,2322.000,1.000,810.000,5.000,0
"03/11/08","22:02:54",234125.000,"cc",28325.932,6.00,6,0.100,203001.000,0.200,25158.000,0.300,2888.000,0.500,2347.000,1.000,731.000,5.000,0
"03/11/08","22:03:00",214606.000,"cc",28311.053,6.00,6,0.100,186602.000,0.200,22097.000,0.300,2884.000,0.500,2312.000,1.000,711.000,5.000,0
"03/11/08","22:03:06",198879.000,"cc",28373.775,6.00,6,0.100,172749.000,0.200,20335.000,0.300,2699.000,0.500,2341.000,1.000,755.000,5.000,0
"03/11/08","22:03:12",255081.000,"cc",28313.793,6.00,6,0.100,221916.000,0.200,27126.000,0.300,2957.000,0.500,2317.000,1.000,765.000,5.000,0
"03/11/08","22:03:18",346297.000,"cc",28361.674,6.00,6,0.100,297072.000,0.200,41996.000,0.300,3920.000,0.500,2533.000,1.000,776.000,5.000,0
"03/11/08","22:03:24",329839.000,"cc",28304.477,6.00,6,0.100,283281.000,0.200,39372.000,0.300,3776.000,0.500,2587.000,1.000,823.000,5.000,0
"03/11/08","22:03:30",263726.000,"cc",28292.879,6.00,6,0.100,228240.000,0.200,29030.000,0.300,3204.000,0.500,2495.000,1.000,757.000,5.000,0
"03/11/08","22:03:36",157530.000,"cc",28278.912,6.00,6,0.100,136971.000,0.200,15070.000,0.300,2479.000,0.500,2213.000,1.000,797.000,5.000,0
"03/11/08","22:03:42",210476.000,"cc",28370.174,6.00,6,0.100,182920.000,0.200,21502.000,0.300,2879.000,0.500,2371.000,1.000,804.000,5.000,0
"03/11/08","22:03:48",225211.000,"cc",28308.162,6.00,6,0.100,195384.000,0.200,23566.000,0.300,2889.000,0.500,2459.000,1.000,913.000,5.000,0
"03/11/08","22:03:54",267712.000,"cc",28305.563,6.00,6,0.100,232653.000,0.200,28525.000,0.300,3144.000,0.500,2508.000,1.000,882.000,5.000,0
"03/11/08","22:04:00",234659.000,"cc",28281.859,6.00,6,0.100,203836.000,0.200,24378.000,0.300,3048.000,0.500,2529.000,1.000,868.000,5.000,0
"03/11/08","22:04:06",224309.000,"cc",28346.580,6.00,6,0.100,195197.000,0.200,22857.000,0.300,2910.000,0.500,2470.000,1.000,875.000,5.000,0
"03/11/08","22:04:12",190998.000,"cc",28363.854,6.00,6,0.100,164449.000,0.200,19729.000,0.300,3232.000,0.500,2671.000,1.000,917.000,5.000,0
"03/11/08","22:04:18",157023.000,"cc",28335.328,6.00,6,0.100,135014.000,0.200,15503.000,0.300,2893.000,0.500,2662.000,1.000,951.000,5.000,0
"03/11/08","22:04:24",218602.000,"cc",28275.043,6.00,6,0.100,189424.000,0.200,22962.000,0.300,2928.000,0.500,2512.000,1.000,776.000,5.000,0
"03/11/08","22:04:30",242855.000,"cc",28270.838,6.00,6,0.100,210856.000,0.200,25702.000,0.300,3014.000,0.500,2487.000,1.000,796.000,5.000,0
"03/11/08","22:04:36",140289.000,"cc",28335.955,6.00,6,0.100,121106.000,0.200,13461.000,0.300,2523.000,0.500,2406.000,1.000,793.000,5.000,0
"03/11/08","22:04:42",149051.000,"cc",28324.867,6.00,6,0.100,129109.000,0.200,14313.000,0.300,2489.000,0.500,2371.000,1.000,769.000,5.000,0
"03/11/08","22:04:48",202732.000,"cc",28292.809,6.00,6,0.100,175858.000,0.200,20647.000,0.300,2885.000,0.500,2492.000,1.000,850.000,5.000,0
"03/11/08","22:04:54",322040.000,"cc",28338.805,6.00,6,0.100,277523.000,0.200,37504.000,0.300,3649.000,0.500,2572.000,1.000,792.000,5.000,0
"03/11/08","22:05:00",288589.000,"cc",28317.693,6.00,6,0.100,250156.000,0.200,31824.000,0.300,3304.000,0.500,2500.000,1.000,805.000,5.000,0
"03/11/08","22:05:06",283769.000,"cc",28296.732,6.00,6,0.100,245767.000,0.200,31297.000,0.300,3386.000,0.500,2522.000,1.000,797.000,5.000,0
"03/11/08","22:05:12",373275.000,"cc",28338.354,6.00,6,0.100,319261.000,0.200,46782.000,0.300,4009.000,0.500,2433.000,1.000,790.000,5.000,0
"03/11/08","22:05:18",372236.000,"cc",28301.717,6.00,6,0.100,317913.000,0.200,46778.000,0.300,4189.000,0.500,2512.000,1.000,844.000,5.000,0
"03/11/08","22:05:24",269757.000,"cc",28359.936,6.00,6,0.100,233017.000,0.200,29988.000,0.300,3405.000,0.500,2473.000,1.000,874.000,5.000,0
"03/11/08","22:05:30",184641.000,"cc",28339.057,6.00,6,0.100,160483.000,0.200,18305.000,0.300,2638.000,0.500,2434.000,1.000,781.000,5.000,0
"03/11/08","22:05:36",162285.000,"cc",28336.949,6.00,6,0.100,140382.000,0.200,15893.000,0.300,2721.000,0.500,2454.000,1.000,835.000,5.000,0
"03/11/08","22:05:42",220688.000,"cc",28307.467,6.00,6,0.100,191810.000,0.200,22765.000,0.300,2878.000,0.500,2431.000,1.000,804.000,5.000,0
"03/11/08","22:05:48",235966.000,"cc",28255.707,6.00,6,0.100,204555.000,0.200,25039.000,0.300,3123.000,0.500,2424.000,1.000,825.000,5.000,0
"03/11/08","22:05:54",227390.000,"cc",28371.805,6.00,6,0.100,196469.000,0.200,24204.000,0.300,3282.000,0.500,2589.000,1.000,846.000,5.000,0
"03/11/08","22:06:00",202426.000,"cc",28252.945,6.00,6,0.100,176068.000,0.200,20335.000,0.300,2841.000,0.500,2398.000,1.000,784.000,5.000,0
"03/11/08","22:06:06",227572.000,"cc",28276.883,6.00,6,0.100,198019.000,0.200,23490.000,0.300,2853.000,0.500,2367.000,1.000,843.000,5.000,0
"03/11/08","22:06:12",272161.000,"cc",28384.857,6.00,6,0.100,235888.000,0.200,29875.000,0.300,3177.000,0.500,2414.000,1.000,807.000,5.000,0
"03/11/08","22:06:18",228504.000,"cc",28292.594,6.00,6,0.100,198929.000,0.200,23629.000,0.300,2828.000,0.500,2376.000,1.000,742.000,5.000,0
"03/11/08","22:06:24",283992.000,"cc",28285.668,6.00,6,0.100,245705.000,0.200,32014.000,0.300,3124.000,0.500,2377.000,1.000,772.000,5.000,0
"03/11/08","22:06:30",220305.000,"cc",28301.217,6.00,6,0.100,190382.000,0.200,24100.000,0.300,2817.000,0.500,2238.000,1.000,768.000,5.000,0
"03/11/08","22:06:36",201619.000,"cc",28364.791,6.00,6,0.100,173682.000,0.200,22152.000,0.300,2699.000,0.500,2321.000,1.000,765.000,5.000,0
"03/11/08","22:06:42",247059.000,"cc",28306.961,6.00,6,0.100,214972.000,0.200,26043.000,0.300,2945.000,0.500,2340.000,1.000,759.000,5.000,0
"03/11/08","22:06:48",223135.000,"cc",28301.270,6.00,6,0.100,194653.000,0.200,22755.000,0.300,2711.000,0.500,2247.000,1.000,769.000,5.000,0
"03/11/08","22:06:54",226461.000,"cc",28301.941,6.00,6,0.100,196841.000,0.200,23654.000,0.300,2778.000,0.500,2382.000,1.000,806.000,5.000,0
"03/11/08","22:07:00",157970.000,"cc",28356.256,6.00,6,0.100,137008.000,0.200,15422.000,0.300,2550.000,0.500,2242.000,1.000,748.000,5.000,0
"03/11/08","22:07:06",236666.000,"cc",28323.041,6.00,6,0.100,206033.000,0.200,24355.000,0.300,3008.000,0.500,2392.000,1.000,878.000,5.000,0
"03/11/08","22:07:12",194572.000,"cc",28329.549,6.00,6,0.100,169559.000,0.200,19204.000,0.300,2657.000,0.500,2315.000,1.000,837.000,5.000,0
"03/11/08","22:07:18",257474.000,"cc",28288.158,6.00,6,0.100,224220.000,0.200,27204.000,0.300,2949.000,0.500,2296.000,1.000,805.000,5.000,0
"03/11/08","22:07:24",307080.000,"cc",28322.486,6.00,6,0.100,264644.000,0.200,36077.000,0.300,3326.000,0.500,2294.000,1.000,739.000,5.000,0
"03/11/08","22:07:30",366298.000,"cc",28347.188,6.00,6,0.100,314850.000,0.200,44529.000,0.300,3733.000,0.500,2416.000,1.000,770.000,5.000,0
"03/11/08","22:07:36",254246.000,"cc",28354.346,6.00,6,0.100,209080.000,0.200,38369.000,0.300,3494.000,0.500,2463.000,1.000,840.000,5.000,0
"03/11/08","22:07:42",252831.000,"cc",28278.023,6.00,6,0.100,218966.000,0.200,27214.000,0.300,3289.000,0.500,2524.000,1.000,837.000,5.000,1.000
"03/11/08","22:07:48",202823.000,"cc",28329.066,6.00,6,0.100,176340.000,0.200,20419.000,0.300,2831.000,0.500,2409.000,1.000,824.000,5.000,0
"03/11/08","22:07:54",281166.000,"cc",28239.219,6.00,6,0.100,244587.000,0.200,30231.000,0.300,3253.000,0.500,2351.000,1.000,744.000,5.000,0
"03/11/08","22:08:00",247226.000,"cc",28324.570,6.00,6,0.100,215480.000,0.200,25592.000,0.300,3058.000,0.500,2329.000,1.000,767.000,5.000,0
"03/11/08","22:08:06",333728.000,"cc",28374.303,6.00,6,0.100,287052.000,0.200,39660.000,0.300,3706.000,0.500,2478.000,1.000,832.000,5.000,0
"03/11/08","22:08:12",311832.000,"cc",28323.447,6.00,6,0.100,270131.000,0.200,35128.000,0.300,3440.000,0.500,2384.000,1.000,749.000,5.000,0
"03/11/08","22:08:18",264235.000,"cc",28354.291,6.00,6,0.100,229298.000,0.200,28548.000,0.300,3125.000,0.500,2458.000,1.000,806.000,5.000,0
"03/11/08","22:08:24",276217.000,"cc",28275.811,6.00,6,0.100,239926.000,0.200,30039.000,0.300,3100.000,0.500,2392.000,1.000,760.000,5.000,0
"03/11/08","22:08:30",328862.000,"cc",28329.750,6.00,6,0.100,284501.000,0.200,37700.000,0.300,3450.000,0.500,2398.000,1.000,813.000,5.000,0
"03/11/08","22:08:36",320577.000,"cc",28318.715,6.00,6,0.100,276949.000,0.200,37008.000,0.300,3546.000,0.500,2340.000,1.000,734.000,5.000,0
"03/11/08","22:08:42",271085.000,"cc",28317.232,6.00,6,0.100,234875.000,0.200,29958.000,0.300,3199.000,0.500,2281.000,1.000,772.000,5.000,0
"03/11/08","22:08:48",321492.000,"cc",28334.555,6.00,6,0.100,277478.000,0.200,37113.000,0.300,3707.000,0.500,2413.000,1.000,781.000,5.000,0
"03/11/08","22:08:54",306198.000,"cc",28247.418,6.00,6,0.100,262772.000,0.200,36441.000,0.300,3661.000,0.500,2482.000,1.000,842.000,5.000,0
"03/11/08","22:09:00",114057.000,"cc",28276.430,6.00,6,0.100,98186.000,0.200,10529.000,0.300,2329.000,0.500,2261.000,1.000,752.000,5.000,0
"03/11/08","22:09:06",275415.000,"cc",28337.897,6.00,6,0.100,237349.000,0.200,31537.000,0.300,3322.000,0.500,2450.000,1.000,757.000,5.000,0
"03/11/08","22:09:12",107621.000,"cc",28356.082,6.00,6,0.100,92197.000,0.200,9965.000,0.300,2305.000,0.500,2383.000,1.000,771.000,5.000,0
"03/11/08","22:09:18",177886.000,"cc",28279.584,6.00,6,0.100,154426.000,0.200,17495.000,0.300,2697.000,0.500,2471.000,1.000,797.000,5.000,0
"03/11/08","22:09:24",153845.000,"cc",28283.014,6.00,6,0.100,133669.000,0.200,14606.000,0.300,2520.000,0.500,2292.000,1.000,758.000,5.000,0
"03/11/08","22:09:30",153923.000,"cc",28273.143,6.00,6,0.100,133480.000,0.200,14592.000,0.300,2580.000,0.500,2465.000,1.000,806.000,5.000,0
"03/11/08","22:09:36",136841.000,"cc",28348.789,6.00,6,0.100,118212.000,0.200,12818.000,0.300,2562.000,0.500,2422.000,1.000,827.000,5.000,0
"03/11/08","22:09:42",106097.000,"cc",28334.324,6.00,6,0.100,90930.000,0.200,9684.000,0.300,2329.000,0.500,2346.000,1.000,808.000,5.000,0
"03/11/08","22:09:48",118878.000,"cc",28374.723,6.00,6,0.100,102117.000,0.200,11145.000,0.300,2426.000,0.500,2399.000,1.000,791.000,5.000,0
"03/11/08","22:09:54",237942.000,"cc",28361.764,6.00,6,0.100,206931.000,0.200,24757.000,0.300,2945.000,0.500,2497.000,1.000,812.000,5.000,0
"03/11/08","22:10:00",160025.000,"cc",28316.059,6.00,6,0.100,139066.000,0.200,15283.000,0.300,2521.000,0.500,2354.000,1.000,801.000,5.000,0
"03/11/08","22:10:06",146440.000,"cc",28231.412,6.00,6,0.100,127252.000,0.200,13535.000,0.300,2503.000,0.500,2351.000,1.000,799.000,5.000,0
"03/11/08","22:10:12",148039.000,"cc",28293.838,6.00,6,0.100,128654.000,0.200,13951.000,0.300,2369.000,0.500,2286.000,1.000,779.000,5.000,0
"03/11/08","22:10:18",129885.000,"cc",28327.791,6.00,6,0.100,112377.000,0.200,11963.000,0.300,2395.000,0.500,2342.000,1.000,808.000,5.000,0
"03/11/08","22:10:24",125846.000,"cc",28316.766,6.00,6,0.100,108575.000,0.200,11637.000,0.300,2389.000,0.500,2373.000,1.000,872.000,5.000,0
"03/11/08","22:10:30",217405.000,"cc",28371.670,6.00,6,0.100,189272.000,0.200,21959.000,0.300,2924.000,0.500,2415.000,1.000,835.000,5.000,0
"03/11/08","22:10:36",316772.000,"cc",28267.686,6.00,6,0.100,274272.000,0.200,35357.000,0.300,3639.000,0.500,2647.000,1.000,857.000,5.000,0
"03/11/08","22:10:42",242352.000,"cc",28338.027,6.00,6,0.100,210635.000,0.200,25242.000,0.300,3052.000,0.500,2536.000,1.000,887.000,5.000,0
"03/11/08","22:10:48",166098.000,"cc",28312.313,6.00,6,0.100,144731.000,0.200,15773.000,0.300,2469.000,0.500,2342.000,1.000,783.000,5.000,0
"03/11/08","22:10:54",182822.000,"cc",28360.342,6.00,6,0.100,159602.000,0.200,17462.000,0.300,2638.000,0.500,2367.000,1.000,753.000,5.000,0
"03/11/08","22:11:00",138592.000,"cc",28296.998,6.00,6,0.100,120219.000,0.200,12822.000,0.300,2398.000,0.500,2370.000,1.000,783.000,5.000,0
"03/11/08","22:11:06",113799.000,"cc",28292.947,6.00,6,0.100,98104.000,0.200,10360.000,0.300,2156.000,0.500,2391.000,1.000,788.000,5.000,0
"03/11/08","22:11:12",173043.000,"cc",28249.500,6.00,6,0.100,150651.000,0.200,16671.000,0.300,2562.000,0.500,2414.000,1.000,745.000,5.000,0
"03/11/08","22:11:18",148680.000,"cc",28299.234,6.00,6,0.100,128861.000,0.200,14101.000,0.300,2426.000,0.500,2464.000,1.000,828.000,5.000,0
"03/11/08","22:11:24",168717.000,"cc",28307.176,6.00,6,0.100,147382.000,0.200,15718.000,0.300,2507.000,0.500,2333.000,1.000,777.000,5.000,0
"03/11/08","22:11:30",212286.000,"cc",28337.422,6.00,6,0.100,185171.000,0.200,21236.000,0.300,2721.000,0.500,2364.000,1.000,794.000,5.000,0
"03/11/08","22:11:36",134230.000,"cc",28281.609,6.00,6,0.100,116502.000,0.200,12326.000,0.300,2317.000,0.500,2307.000,1.000,778.000,5.000,0
"03/11/08","22:11:42",156649.000,"cc",28306.637,6.00,6,0.100,136073.000,0.200,14693.000,0.300,2576.000,0.500,2475.000,1.000,832.000,5.000,0
"03/11/08","22:11:48",189578.000,"cc",28400.195,6.00,6,0.100,165406.000,0.200,17950.000,0.300,2796.000,0.500,2604.000,1.000,822.000,5.000,0
"03/11/08","22:11:54",258676.000,"cc",28324.246,6.00,6,0.100,225126.000,0.200,27082.000,0.300,3067.000,0.500,2542.000,1.000,859.000,5.000,0
"03/11/08","22:12:00",246991.000,"cc",28215.125,6.00,6,0.100,215591.000,0.200,24945.000,0.300,3159.000,0.500,2432.000,1.000,864.000,5.000,0
"03/11/08","22:12:06",160714.000,"cc",28355.670,6.00,6,0.100,140110.000,0.200,14866.000,0.300,2522.000,0.500,2373.000,1.000,843.000,5.000,0
"03/11/08","22:12:12",108564.000,"cc",28333.656,6.00,6,0.100,93514.000,0.200,9669.000,0.300,2236.000,0.500,2342.000,1.000,803.000,5.000,0
"03/11/08","22:12:18",216603.000,"cc",28296.129,6.00,6,0.100,189078.000,0.200,21466.000,0.300,2843.000,0.500,2372.000,1.000,844.000,5.000,0
"03/11/08","22:12:24",111086.000,"cc",28309.557,6.00,6,0.100,95836.000,0.200,9987.000,0.300,2229.000,0.500,2230.000,1.000,804.000,5.000,0
"03/11/08","22:12:30",172451.000,"cc",28311.016,6.00,6,0.100,149897.000,0.200,16656.000,0.300,2584.000,0.500,2495.000,1.000,819.000,5.000,0
"03/11/08","22:12:36",97968.000,"cc",28339.012,6.00,6,0.100,83715.000,0.200,8801.000,0.300,2277.000,0.500,2342.000,1.000,833.000,5.000,0
"03/11/08","22:12:42",162218.000,"cc",28238.920,6.00,6,0.100,140558.000,0.200,15457.000,0.300,2689.000,0.500,2643.000,1.000,871.000,5.000,0
"03/11/08","22:12:48",153487.000,"cc",28358.168,6.00,6,0.100,132396.000,0.200,14786.000,0.300,2788.000,0.500,2611.000,1.000,906.000,5.000,0
"03/11/08","22:12:54",107074.000,"cc",28330.174,6.00,6,0.100,91668.000,0.200,9831.000,0.300,2343.000,0.500,2440.000,1.000,792.000,5.000,0
"03/11/08","22:13:00",107246.000,"cc",28294.834,6.00,6,0.100,91959.000,0.200,9584.000,0.300,2428.000,0.500,2412.000,1.000,863.000,5.000,0
"03/11/08","22:13:06",121635.000,"cc",28327.412,6.00,6,0.100,105105.000,0.200,11062.000,0.300,2409.000,0.500,2309.000,1.000,750.000,5.000,0
"03/11/08","22:13:12",181195.000,"cc",28314.932,6.00,6,0.100,157539.000,0.200,17722.000,0.300,2676.000,0.500,2482.000,1.000,776.000,5.000,0
"03/11/08","22:13:18",121610.000,"cc",28332.408,6.00,6,0.100,104700.000,0.200,11197.000,0.300,2374.000,0.500,2535.000,1.000,804.000,5.000,0
"03/11/08","22:13:24",150004.000,"cc",28320.582,6.00,6,0.100,130076.000,0.200,14196.000,0.300,2511.000,0.500,2446.000,1.000,775.000,5.000,0
"03/11/08","22:13:30",253399.000,"cc",28242.162,6.00,6,0.100,220139.000,0.200,26936.000,0.300,3151.000,0.500,2373.000,1.000,800.000,5.000,0
"03/11/08","22:13:36",140428.000,"cc",28383.746,6.00,6,0.100,121621.000,0.200,13215.000,0.300,2477.000,0.500,2334.000,1.000,781.000,5.000,0
"03/11/08","22:13:42",180963.000,"cc",28303.004,6.00,6,0.100,156179.000,0.200,18039.000,0.300,3074.000,0.500,2738.000,1.000,933.000,5.000,0
"03/11/08","22:13:48",164751.000,"cc",28319.326,6.00,6,0.100,142097.000,0.200,16191.000,0.300,2944.000,0.500,2643.000,1.000,876.000,5.000,0
"03/11/08","22:13:54",211844.000,"cc",28325.957,6.00,6,0.100,183997.000,0.200,21317.000,0.300,3099.000,0.500,2567.000,1.000,864.000,5.000,0
"03/11/08","22:14:00",247897.000,"cc",28309.893,6.00,6,0.100,214919.000,0.200,26343.000,0.300,3202.000,0.500,2562.000,1.000,871.000,5.000,0
"03/11/08","22:14:06",288094.000,"cc",28356.014,6.00,6,0.100,247121.000,0.200,34040.000,0.300,3650.000,0.500,2482.000,1.000,801.000,5.000,0
"03/11/08","22:14:12",258054.000,"cc",28304.004,6.00,6,0.100,224879.000,0.200,26864.000,0.300,3045.000,0.500,2441.000,1.000,825.000,5.000,0
"03/11/08","22:14:18",230885.000,"cc",28316.551,6.00,6,0.100,201083.000,0.200,23398.000,0.300,2926.000,0.500,2580.000,1.000,898.000,5.000,0
"03/11/08","22:14:24",164817.000,"cc",28297.938,6.00,6,0.100,143619.000,0.200,15405.000,0.300,2578.000,0.500,2438.000,1.000,777.000,5.000,0
"03/11/08","22:14:30",110561.000,"cc",28269.068,6.00,6,0.100,94802.000,0.200,10209.000,0.300,2367.000,0.500,2384.000,1.000,799.000,5.000,0
"03/11/08","22:14:36",167756.000,"cc",28337.250,6.00,6,0.100,145738.000,0.200,15952.000,0.300,2612.000,0.500,2566.000,1.000,888.000,5.000,0
"03/11/08","22:14:42",170137.000,"cc",28350.943,6.00,6,0.100,148309.000,0.200,16114.000,0.300,2550.000,0.500,2420.000,1.000,744.000,5.000,0
"03/11/08","22:14:48",179910.000,"cc",28360.844,6.00,6,0.100,157087.000,0.200,16918.000,0.300,2642.000,0.500,2430.000,1.000,833.000,5.000,0
"03/11/08","22:14:54",151935.000,"cc",28274.012,6.00,6,0.100,131876.000,0.200,14315.000,0.300,2524.000,0.500,2402.000,1.000,818.000,5.000,0
"03/11/08","22:15:00",123334.000,"cc",28276.979,6.00,6,0.100,106675.000,0.200,11072.000,0.300,2406.000,0.500,2403.000,1.000,778.000,5.000,0
"03/11/08","22:15:06",106882.000,"cc",28367.982,6.00,6,0.100,91723.000,0.200,9591.000,0.300,2273.000,0.500,2476.000,1.000,819.000,5.000,0
"03/11/08","22:15:12",120874.000,"cc",28322.061,6.00,6,0.100,103894.000,0.200,11129.000,0.300,2495.000,0.500,2487.000,1.000,869.000,5.000,0
"03/11/08","22:15:18",81148.000,"cc",28277.223,6.00,6,0.100,68285.000,0.200,7253.000,0.300,2289.000,0.500,2486.000,1.000,835.000,5.000,0
"03/11/08","22:15:24",140930.000,"cc",28321.318,6.00,6,0.100,121450.000,0.200,13475.000,0.300,2594.000,0.500,2520.000,1.000,891.000,5.000,0
"03/11/08","22:15:30",140028.000,"cc",28320.957,6.00,6,0.100,121151.000,0.200,12820.000,0.300,2686.000,0.500,2525.000,1.000,846.000,5.000,0
"03/11/08","22:15:36",189881.000,"cc",28304.373,6.00,6,0.100,165076.000,0.200,18665.000,0.300,2821.000,0.500,2489.000,1.000,830.000,5.000,0
"03/11/08","22:15:42",169430.000,"cc",28287.887,6.00,6,0.100,147829.000,0.200,15779.000,0.300,2579.000,0.500,2503.000,1.000,740.000,5.000,0
"03/11/08","22:15:48",105712.000,"cc",28338.979,6.00,6,0.100,90713.000,0.200,9462.000,0.300,2370.000,0.500,2409.000,1.000,758.000,5.000,0
"03/11/08","22:15:54",101092.000,"cc",28305.092,6.00,6,0.100,86078.000,0.200,9157.000,0.300,2455.000,0.500,2534.000,1.000,868.000,5.000,0
"03/11/08","22:16:00",131465.000,"cc",28354.135,6.00,6,0.100,113545.000,0.200,12199.000,0.300,2425.000,0.500,2477.000,1.000,819.000,5.000,0